Location: Caltech
(34.1382°N, 118.1253°W)
Time: 23:45:15
(UTC-07:00)

JAS-1B - Visible Passes

Search period start: 01 September 2014 00:00
Search period end: 11 September 2014 00:00
Orbit: 911 x 1744 km, 99.1° (Epoch: 01 September)

Date Brightness Start Highest point End Pass type
(mag) Time Alt. Az. Time Alt. Az. Time Alt. Az.
01 Sep 9.2 02:09:12 10° NE 02:11:49 18° ENE 02:11:49 18° ENE visible
01 Sep 7.6 03:58:37 10° N 04:04:04 43° NW 04:04:04 43° NW visible
02 Sep 8.8 02:27:29 10° NE 02:30:57 25° ENE 02:30:57 25° ENE visible
02 Sep 8.0 04:18:03 10° N 04:23:11 30° WNW 04:23:11 30° WNW visible
03 Sep 8.4 02:46:07 10° NNE 02:50:04 34° NE 02:50:04 34° NE visible
03 Sep 8.4 04:37:44 10° NNW 04:42:17 21° WNW 04:42:19 21° WNW visible
04 Sep 8.0 03:04:57 10° NNE 03:09:12 43° NE 03:09:12 43° NE visible
04 Sep 8.7 04:57:52 10° NNW 05:00:58 14° WNW 05:01:26 14° WNW visible
05 Sep 7.7 03:23:58 10° NNE 03:28:20 47° N 03:28:20 47° N visible
06 Sep 9.6 01:54:42 10° ENE 01:55:13 11° ENE 01:55:13 11° ENE visible
06 Sep 7.7 03:43:08 10° N 03:47:27 42° NNW 03:47:27 42° NNW visible
07 Sep 9.3 02:12:33 10° NE 02:14:20 16° ENE 02:14:20 16° ENE visible
07 Sep 8.0 04:02:27 10° N 04:06:35 33° NW 04:06:35 33° NW visible
08 Sep 9.0 02:30:57 10° NNE 02:33:28 22° NE 02:33:28 22° NE visible
08 Sep 8.3 04:21:58 10° NNW 04:25:42 24° NW 04:25:42 24° NW visible
09 Sep 8.6 02:49:38 10° NNE 02:52:35 28° NE 02:52:35 28° NE visible
09 Sep 8.6 04:41:49 10° NNW 04:44:50 17° NW 04:44:50 17° NW visible
10 Sep 8.3 03:08:32 10° NNE 03:11:43 33° NNE 03:11:43 33° NNE visible
10 Sep 8.9 05:02:33 10° NW 05:03:57 11° NW 05:03:57 11° NW visible
